This is the latest recevied weather packets stored in our database for station/object ON6OO-13. If no packets are shown the sender has not sent any weather packets the latest 10 day(s).
| Time | Temp. | Humidity | Pressure | Rain* | Wind** | Luminosity | Snow |
|---|---|---|---|---|---|---|---|
| 1777689109 | 11.67° C | 60% | 1011.8 hPa | 0 mm | - | - | - |
| 1777688197 | 11.67° C | 62% | 1011.8 hPa | 0 mm | - | - | - |
| 1777687285 | 12.22° C | 61% | 1012.1 hPa | 0 mm | - | - | - |
| 1777686373 | 12.22° C | 59% | 1011.8 hPa | 0 mm | - | - | - |
| 1777685461 | 12.22° C | 58% | 1011.8 hPa | 0 mm | - | - | - |
| 1777684549 | 12.78° C | 58% | 1012.1 hPa | 0 mm | - | - | - |
| 1777683637 | 12.78° C | 56% | 1012.5 hPa | 0 mm | - | - | - |
| 1777682725 | 13.33° C | 54% | 1012.5 hPa | 0 mm | - | - | - |
| 1777681813 | 13.33° C | 53% | 1012.5 hPa | 0 mm | - | - | - |
| 1777680901 | 13.89° C | 52% | 1012.5 hPa | 0 mm | - | - | - |
| 1777679989 | 13.89° C | 53% | 1012.5 hPa | 0 mm | - | - | - |
| 1777679077 | 13.33° C | 51% | 1012.8 hPa | 0 mm | - | - | - |
| 1777678165 | 13.33° C | 49% | 1012.8 hPa | 0 mm | - | - | - |
| 1777677253 | 13.89° C | 52% | 1012.8 hPa | 0 mm | - | - | - |
| 1777676341 | 15° C | 49% | 1012.8 hPa | 0 mm | - | - | - |
| 1777675429 | 15° C | 47% | 1012.8 hPa | 0 mm | - | - | - |
| 1777674517 | 15.56° C | 46% | 1012.8 hPa | 0 mm | - | - | - |
| 1777673605 | 15.56° C | 46% | 1013.2 hPa | 0 mm | - | - | - |
| 1777672695 | 15.56° C | 47% | 1013.2 hPa | 0 mm | - | - | - |
| 1777671783 | 15.56° C | 47% | 1012.8 hPa | 0 mm | - | - | - |
| 1777670871 | 16.11° C | 48% | 1012.8 hPa | 0 mm | - | - | - |
| 1777669959 | 16.67° C | 48% | 1012.8 hPa | 0 mm | - | - | - |
| 1777669047 | 17.22° C | 44% | 1012.8 hPa | 0 mm | - | - | - |
| 1777668134 | 17.22° C | 43% | 1012.8 hPa | 0 mm | - | - | - |
| 1777667223 | 17.22° C | 42% | 1013.2 hPa | 0 mm | - | - | - |
* Rain latest hour (hover to see other rain measurements)
** Current wind speed in m/s (hover to see current wind gust speed)